Theta_e
358 357 358 357 357 357 356 356 356 355 355 355 355 355 353 353 353 352 351 349 349 350 349 350 351 352 354 354 354 355 355 354 356 359 360 361 360 359 358 356 355 356 357 357 356 355 354 355 356 358 357 356 355 356 356 354 354 354 354 353 352 353 353 352 349 350 351 352 353 351 350 350 349 350 350 350 351 350 349 348 348 349 348 348 349
359 360 361 359 357 357 355 356 356 355 356 355 355 354 353 354 353 352 351 350 349 349 350 350 350 350 352 353 354 353 353 353 356 360 361 360 360 359 358 357 355 356 357 358 357 357 356 355 356 357 358 357 356 356 355 355 354 355 354 353 351 350 349 349 348 347 349 351 351 350 350 350 349 349 350 350 351 349 349 349 349 349 349 350 350
361 361 360 359 358 357 356 355 356 357 356 354 354 354 354 353 353 351 352 352 351 351 350 349 351 351 350 352 354 354 353 355 358 361 361 359 359 358 358 356 356 356 357 358 357 356 357 357 356 357 357 356 355 355 355 354 354 353 353 352 351 349 349 348 347 346 348 348 349 349 349 349 349 349 351 352 352 350 349 350 351 352 351 351 351
358 358 358 359 359 358 357 356 356 358 358 356 354 355 353 353 353 353 353 353 354 354 352 351 356 357 354 355 357 359 359 359 360 361 361 360 359 358 357 357 356 355 355 355 355 354 353 353 353 353 354 354 354 354 354 354 353 352 352 352 350 349 350 350 348 348 348 348 349 349 348 348 349 349 351 353 352 350 349 350 351 351 352 351 350
359 358 357 359 360 359 357 356 358 360 361 358 355 356 354 352 353 353 352 356 360 360 356 357 361 361 361 362 362 362 363 362 361 361 360 359 358 358 357 355 354 353 353 353 353 352 351 350 351 352 352 353 353 353 352 353 352 353 352 352 352 351 351 350 349 350 350 349 349 348 348 348 348 348 349 350 349 348 348 349 350 350 351 350 349
359 358 356 355 357 358 358 357 360 361 361 359 357 356 355 353 352 352 353 359 364 363 360 360 362 361 361 363 362 360 360 361 361 361 359 358 358 358 355 354 353 353 352 353 352 352 352 352 352 353 352 352 352 352 351 352 352 353 353 354 353 352 351 350 350 350 350 350 349 349 348 348 348 349 348 348 348 347 347 348 348 348 349 349 349
359 358 357 356 355 357 357 357 359 360 362 362 360 356 355 355 354 355 357 361 364 363 361 361 361 360 360 361 359 357 358 359 360 359 359 358 358 357 355 355 355 353 353 352 352 353 354 354 353 353 352 352 352 352 352 352 352 353 354 354 353 352 352 351 351 349 348 348 348 348 349 349 349 349 349 348 348 348 348 348 348 347 347 348 347
359 358 358 357 355 356 357 357 359 360 362 363 360 357 356 357 358 360 361 363 363 361 360 360 360 360 360 360 358 357 357 357 357 357 358 357 357 357 355 354 354 353 353 353 353 353 353 353 353 353 353 352 352 351 351 352 352 352 352 353 352 351 351 351 350 348 346 347 349 349 349 349 348 348 348 348 349 350 349 347 347 347 346 346 347
361 361 360 359 357 358 359 360 361 361 361 361 358 357 357 356 359 361 362 362 361 359 358 361 362 361 360 360 358 357 356 355 354 354 355 356 356 356 355 354 354 353 352 352 353 353 353 353 354 353 353 353 352 352 352 352 352 352 352 352 351 351 351 350 351 349 347 348 348 347 347 346 346 347 348 349 349 349 348 346 346 346 346 346 346
362 361 360 359 359 361 361 362 363 362 360 358 357 356 355 355 357 359 361 361 361 361 361 361 362 361 360 360 358 356 354 355 355 354 355 356 356 356 355 354 353 352 351 353 353 354 354 353 353 353 353 352 352 352 352 352 352 351 351 352 351 351 350 350 350 349 348 348 347 346 346 346 346 346 347 348 349 347 347 346 346 346 347 347 347
360 360 360 359 359 361 361 362 363 359 357 357 357 356 357 358 359 359 360 361 361 361 359 357 359 360 360 359 358 354 353 355 355 354 354 354 355 355 355 353 353 352 353 354 354 352 352 352 352 352 352 352 351 351 352 352 352 350 349 350 351 351 351 350 350 349 348 348 348 347 347 347 348 346 346 348 348 347 347 346 346 347 348 348 348
362 361 363 362 359 357 358 361 362 359 358 358 358 359 361 361 359 359 360 359 358 359 357 357 359 359 358 357 356 354 353 354 354 354 352 351 352 354 353 352 352 352 353 353 352 352 351 350 351 351 351 351 349 347 346 346 347 349 350 350 350 351 351 350 349 349 348 348 347 348 347 347 347 346 347 348 347 347 346 346 346 346 346 346 346
363 362 364 363 359 355 354 358 361 361 361 361 361 361 361 358 357 357 357 356 357 359 358 358 358 358 356 355 354 353 354 353 353 351 350 350 350 352 353 353 352 352 352 352 351 351 351 349 349 350 350 349 345 341 338 336 336 341 349 351 350 350 349 349 349 348 347 347 347 347 347 347 347 346 346 347 346 345 344 342 342 343 342 342 343
364 363 362 361 359 358 358 359 360 361 361 361 361 360 357 354 353 354 355 355 357 358 356 355 356 354 353 353 353 354 353 351 351 350 349 350 349 350 353 353 351 350 350 350 349 349 348 345 345 348 348 345 340 336 335 334 332 337 346 350 349 348 348 347 348 347 346 346 345 344 343 343 345 346 346 345 343 342 341 340 340 340 340 341 342
364 364 362 362 362 361 361 360 361 361 361 362 360 356 353 352 350 352 355 356 356 356 356 356 355 353 351 353 354 354 351 349 350 350 349 349 349 351 352 351 349 348 348 348 347 347 347 343 343 346 345 340 335 333 333 333 332 336 344 348 346 346 347 348 347 346 344 341 339 338 338 338 338 340 341 338 337 337 339 339 340 340 341 342 342
364 366 364 364 364 363 363 362 362 362 361 359 356 352 352 352 351 352 354 354 354 355 355 355 354 351 351 353 352 351 349 349 349 349 349 349 349 350 351 349 347 347 346 345 345 346 346 344 343 344 341 335 334 334 334 333 332 335 343 346 344 343 346 348 347 343 341 338 336 336 338 338 334 333 333 333 332 334 337 340 340 340 340 342 341
361 363 363 364 364 363 363 362 361 358 355 353 354 355 355 354 353 353 353 353 354 354 353 354 353 351 350 351 350 348 347 347 347 346 347 348 348 348 348 347 346 346 345 344 345 345 346 344 342 340 335 333 334 334 334 333 331 335 342 345 342 342 345 345 344 341 340 339 336 337 339 340 337 332 332 333 332 330 334 339 340 339 339 341 341
361 363 363 363 362 360 359 358 358 356 354 353 355 356 355 354 354 354 354 354 354 352 352 352 352 351 351 351 350 347 345 343 343 344 346 347 347 347 347 346 346 346 345 343 344 345 344 343 340 336 333 333 334 335 335 333 331 335 341 343 341 343 342 339 338 340 339 337 337 338 340 341 340 337 335 337 335 332 336 340 340 338 339 340 340
362 362 360 359 358 355 355 355 355 354 353 353 354 354 353 354 355 355 355 356 354 352 352 351 351 352 352 351 348 343 340 338 339 343 345 346 346 346 347 346 346 345 343 342 344 345 343 342 339 333 332 333 333 334 335 333 331 335 340 340 341 340 336 333 335 337 337 336 337 339 340 340 340 340 339 339 338 336 337 339 338 337 338 339 338
360 358 356 355 353 353 355 356 355 353 353 353 354 354 353 354 356 355 355 354 353 351 350 351 352 352 351 349 345 338 336 338 340 343 344 345 345 346 345 346 346 345 343 342 345 345 344 342 337 332 332 334 333 334 334 333 332 334 334 334 334 334 333 334 336 338 338 338 338 338 339 339 339 339 339 339 338 337 337 338 337 336 337 337 337
356 355 355 354 353 353 355 356 356 355 355 355 354 355 355 356 355 354 352 350 350 350 349 350 352 352 351 349 343 338 338 340 341 342 342 343 344 342 338 339 343 345 344 342 343 344 343 340 334 332 333 334 333 333 334 333 334 334 333 334 334 334 335 337 338 339 339 339 339 339 339 339 338 338 338 338 338 337 337 337 335 335 335 335 336
354 354 354 352 352 354 354 354 355 357 357 356 356 356 356 356 354 351 350 349 349 349 349 349 349 350 350 348 342 337 338 339 339 340 342 343 343 339 334 335 339 343 344 343 342 343 343 339 333 332 334 335 334 333 333 334 334 334 335 336 336 336 337 338 338 338 338 339 339 339 338 338 337 337 337 337 337 337 337 337 336 336 337 336 336
353 354 352 350 352 355 355 354 356 358 357 356 356 356 355 354 352 350 350 348 347 347 347 346 345 346 349 347 340 336 337 338 338 340 342 342 341 338 335 334 337 341 343 343 342 342 341 337 333 333 335 335 335 334 333 333 333 333 333 334 335 335 336 336 335 335 335 336 336 336 336 336 336 336 335 335 334 334 335 337 337 337 337 337 336
354 354 352 351 354 356 355 355 357 357 356 356 355 353 352 351 350 349 348 347 344 344 344 344 344 345 348 348 343 338 336 337 339 340 341 340 338 336 334 334 336 340 341 341 340 339 337 333 333 335 335 335 336 336 333 331 331 331 331 331 331 331 331 332 331 331 330 331 332 333 333 333 333 333 332 333 333 332 332 333 334 334 334 334 334
357 356 354 354 356 356 355 355 356 356 356 355 354 351 349 350 348 347 347 345 343 343 344 345 347 348 349 350 347 341 338 338 339 340 340 339 337 337 336 336 336 338 339 339 338 337 335 333 335 336 335 335 336 336 333 330 329 329 329 329 328 326 326 327 328 327 327 326 327 328 328 329 330 330 329 330 331 331 330 330 330 332 332 332 331
356 357 357 357 357 357 356 355 354 355 355 355 354 352 351 350 348 346 345 345 345 345 347 348 350 350 348 349 348 345 343 342 342 342 341 340 339 339 339 339 338 339 339 338 337 338 337 336 336 336 336 336 335 334 332 331 329 327 326 326 325 324 323 324 324 324 323 323 323 323 324 325 326 326 326 327 328 328 329 328 327 329 330 330 330
352 355 357 357 356 356 356 354 352 351 351 351 351 351 350 350 348 346 346 347 348 349 349 349 350 350 349 349 347 346 346 344 343 342 342 342 341 340 340 340 339 338 335 332 333 337 339 337 336 336 336 336 334 332 330 329 328 326 324 323 323 322 322 322 320 319 319 320 320 320 321 321 321 322 323 324 323 324 325 324 324 326 327 328 329
351 352 352 353 353 353 352 349 345 344 343 344 345 345 345 345 345 346 346 348 350 350 350 349 350 349 349 348 346 345 343 341 340 338 337 338 338 335 333 333 333 332 329 328 332 336 338 336 335 334 334 333 332 329 327 325 324 324 323 323 321 321 319 318 316 316 317 318 318 318 318 319 318 319 319 320 320 320 321 321 322 324 325 325 327
349 349 348 349 350 349 346 343 341 341 341 341 340 338 339 341 343 344 345 346 347 348 348 348 348 347 347 347 346 343 339 336 335 334 333 333 332 329 328 328 327 327 327 330 334 336 336 335 333 331 330 329 328 326 324 322 323 322 321 321 320 318 316 315 314 315 315 316 315 316 316 316 316 316 316 316 317 317 317 319 319 320 321 323 324
346 347 346 346 348 347 344 341 340 339 338 337 336 334 336 339 341 342 342 344 346 346 347 346 345 345 344 343 341 338 335 333 333 332 331 330 328 327 326 325 325 326 329 332 335 335 334 333 331 329 328 326 325 324 322 321 320 320 319 318 318 317 316 315 314 313 313 314 314 315 314 313 313 314 315 315 315 315 315 316 316 317 319 320 321
346 347 346 346 347 347 345 343 341 339 336 335 335 334 334 335 337 338 339 340 342 343 343 342 341 341 340 339 337 335 334 332 331 330 329 327 324 322 321 321 322 326 329 332 333 332 330 329 328 326 324 323 322 320 319 318 318 317 317 317 317 315 315 315 314 313 313 314 314 314 313 313 313 314 314 314 314 314 315 316 316 317 318 318 318
346 346 346 346 345 346 346 345 343 341 339 337 336 334 334 332 332 334 336 338 338 338 338 337 337 336 336 334 333 332 331 330 328 326 324 322 320 319 319 321 323 325 328 330 331 328 326 325 323 322 321 320 319 319 318 317 317 316 316 316 316 315 314 314 313 312 312 313 314 313 312 312 313 314 313 313 314 315 315 315 316 316 316 316 316
346 344 345 345 345 346 347 346 345 343 343 341 339 337 336 334 331 330 332 334 335 335 334 334 333 333 332 331 330 329 328 326 323 320 319 320 321 321 320 320 321 322 325 327 326 324 323 321 320 319 319 318 317 318 317 317 316 316 315 315 315 314 313 313 312 311 311 313 313 313 312 312 313 312 312 313 313 314 314 314 313 314 314 314 314
347 345 345 345 345 346 348 347 346 345 344 343 342 340 338 337 334 332 331 330 329 328 328 328 328 328 326 324 322 321 318 316 316 317 319 321 323 323 323 322 321 320 320 321 321 320 320 318 318 318 318 318 317 317 317 316 315 315 314 314 314 314 313 312 312 311 311 311 312 312 311 311 311 311 311 311 312 312 312 312 312 312 312 312 312
347 346 346 346 345 346 347 348 347 347 345 344 343 341 340 340 339 337 334 330 326 323 321 320 320 320 318 315 312 309 309 311 315 319 320 320 321 323 324 324 322 320 319 319 318 318 318 318 318 318 317 317 316 316 316 315 315 314 314 313 313 313 312 312 311 311 310 311 311 311 310 311 311 311 310 310 311 311 311 311 310 311 311 311 311
349 348 348 347 347 348 349 349 348 346 345 344 343 342 341 340 339 336 332 328 325 322 318 316 316 317 317 316 314 312 312 314 316 317 317 317 319 321 322 320 319 319 319 319 319 318 318 318 318 317 316 316 315 315 315 314 314 314 313 312 313 313 312 311 311 310 310 310 310 310 310 310 310 310 309 309 310 310 310 309 309 310 310 311 311
350 349 349 349 349 349 349 348 347 345 344 343 342 341 340 338 336 333 330 326 324 322 319 318 319 318 318 318 319 318 318 318 318 319 319 320 320 320 320 320 319 319 319 319 318 318 317 317 316 316 315 315 314 314 314 313 313 313 313 312 312 312 311 311 310 310 310 310 310 309 309 309 309 309 309 309 310 310 309 309 309 309 310 310 310
351 351 350 349 349 348 346 345 344 344 342 341 340 339 337 336 333 331 328 326 325 324 323 324 324 323 321 320 320 320 320 321 322 321 321 321 321 321 320 320 320 319 318 318 318 317 317 316 316 315 315 314 314 314 313 313 313 313 312 312 312 311 311 311 310 310 310 309 309 309 309 309 309 309 309 309 309 309 308 308 309 309 309 309 309
350 351 349 347 346 344 343 343 342 341 340 339 338 336 335 334 331 329 328 327 327 327 327 328 328 327 325 324 324 323 322 323 323 323 321 320 320 321 320 320 319 319 318 317 316 317 316 316 315 315 315 314 314 313 313 312 313 312 312 312 311 311 311 311 310 310 310 309 309 309 309 308 308 308 308 308 308 308 308 308 308 308 308 308 308
349 348 347 345 344 343 343 342 340 339 338 337 336 335 334 332 330 330 330 330 330 331 329 328 327 327 326 325 324 325 325 324 321 320 321 321 320 320 320 319 318 317 317 317 316 316 316 315 315 315 315 314 313 313 313 312 312 312 312 312 311 311 311 311 310 310 310 309 309 309 308 308 308 308 308 308 308 307 307 308 307 307 307 307 307
346 345 344 344 343 342 341 340 339 338 337 336 335 334 333 332 332 333 332 332 332 331 328 325 323 322 324 323 322 321 323 323 320 319 320 319 318 318 319 318 317 316 316 316 316 315 315 315 315 315 314 314 313 313 312 312 312 312 311 311 311 311 310 310 310 310 309 309 309 308 308 308 308 307 308 308 307 307 307 307 307 307 307 307 307
344 344 344 343 342 341 340 339 337 337 335 335 334 334 334 333 333 332 332 332 330 327 323 319 316 316 319 321 320 318 319 321 320 319 319 318 318 318 318 317 316 315 315 315 315 314 314 314 314 314 314 313 313 313 312 312 312 312 311 311 310 310 310 310 310 309 309 309 308 308 308 307 307 307 307 307 307 307 307 307 307 307 307 307 307
344 343 342 341 340 340 339 338 337 337 336 335 335 334 334 332 331 331 331 329 327 323 319 316 314 314 316 318 318 319 320 320 319 318 318 318 317 317 317 316 315 314 314 314 314 313 313 313 313 313 313 312 312 312 312 312 311 311 311 311 310 310 310 310 309 309 309 309 308 308 307 307 307 307 307 307 307 307 307 306 307 307 307 307 307
344 342 340 339 339 339 338 338 337 336 336 335 335 334 333 331 330 330 328 325 323 321 318 315 315 316 317 318 319 320 320 319 317 317 318 318 317 317 317 316 315 314 314 314 313 313 313 313 312 312 312 312 312 312 312 311 311 311 311 311 311 310 310 310 309 309 309 309 308 308 308 308 307 307 307 307 307 307 307 307 307 307 307 307 307
341 339 338 337 336 336 335 335 335 334 334 333 333 332 330 329 327 327 325 323 323 322 319 317 318 319 319 320 321 320 319 317 317 317 317 317 317 316 316 315 314 314 314 313 312 312 312 312 312 312 312 311 311 312 312 312 311 311 311 311 311 310 310 310 309 309 309 309 309 309 308 308 308 307 307 307 307 307 307 307 307 306 307 307 306
336 336 335 334 333 332 331 331 331 331 331 330 329 327 326 325 323 323 323 322 322 321 320 320 320 320 319 318 318 318 318 318 317 316 316 316 316 315 315 314 314 314 314 313 312 312 312 312 312 312 312 311 311 312 312 312 311 311 311 311 311 311 311 310 310 310 309 309 309 309 308 308 308 308 308 308 307 307 307 307 306 306 306 306 306
333 333 332 331 331 330 329 329 329 328 327 326 325 324 323 322 322 322 321 320 319 319 319 319 319 319 318 318 317 317 317 316 316 315 316 315 315 315 314 314 314 313 313 313 312 312 312 312 312 312 312 311 312 311 312 312 312 311 311 311 310 310 310 309 309 308 308 308 308 307 307 307 307 307 307 307 307 307 307 306 306 306 306 306 306
331 331 330 330 329 328 327 327 327 326 324 324 324 323 322 321 321 320 320 319 319 319 319 319 318 318 318 317 316 315 315 316 315 315 315 315 315 314 314 314 313 313 313 313 312 312 312 312 312 312 312 312 312 312 312 311 310 310 309 309 308 307 307 307 307 306 306 306 305 305 305 305 305 306 306 306 306 306 306 306 306 305 305 305 305
328 327 327 326 326 326 325 325 325 324 323 322 321 320 319 319 319 319 319 319 319 319 318 318 317 317 316 316 315 315 315 316 315 315 315 315 315 314 314 313 313 313 313 313 313 312 312 312 312 312 312 312 312 312 311 310 310 309 308 307 306 305 305 305 305 305 304 304 304 303 303 303 303 303 304 304 305 305 305 305 305 305 305 305 305
326 325 324 324 324 324 324 323 323 322 321 320 319 319 318 318 318 318 318 319 318 318 317 317 316 315 315 316 316 316 315 315 315 315 315 315 314 314 313 314 314 313 313 313 313 313 313 312 312 312 312 312 312 311 310 309 308 307 306 305 304 304 303 303 302 302 301 301 301 300 300 300 300 301 302 303 303 304 304 304 304 304 304 304 304
323 323 323 322 322 321 320 320 320 319 319 319 318 318 318 318 318 318 318 317 317 317 316 316 316 316 316 316 316 316 315 315 315 316 315 315 314 314 314 315 315 315 314 314 314 313 313 312 312 312 312 312 311 309 308 307 306 304 303 302 301 301 300 299 298 298 297 297 296 297 298 299 299 300 300 301 301 301 302 303 303 303 304 304 304
Wind_Speed
5 4 5 6 6 9 11 12 16 17 15 15 15 16 18 17 15 13 13 14 13 14 15 14 14 12 12 14 13 11 11 12 11 12 13 12 10 10 10 11 11 11 12 12 12 13 13 13 13 13 13 13 13 14 13 13 14 14 15 16 15 13 11 8 6 10 16 18 14 13 16 17 18 15 14 16 14 14 16 16 16 17 17 18 18
12 11 12 17 17 19 21 22 23 20 17 15 13 15 17 15 13 11 11 14 14 13 14 14 14 14 14 15 15 14 13 12 11 10 10 9 9 9 10 11 11 12 13 14 14 14 14 14 14 12 12 13 12 13 13 13 13 13 13 14 14 14 14 12 9 8 12 16 15 16 18 18 18 17 16 15 14 14 16 17 16 17 17 18 18
22 20 18 21 20 20 24 24 24 21 17 12 10 13 12 11 13 12 10 12 14 14 14 13 13 14 14 13 13 13 12 12 12 10 8 8 9 10 10 10 11 11 12 14 14 14 13 14 13 12 14 15 13 12 13 14 14 14 14 14 13 13 12 11 10 9 10 14 17 18 18 19 19 16 13 14 14 14 15 15 15 16 16 16 17
21 20 20 23 22 22 22 21 21 19 15 14 15 17 15 13 14 13 10 10 11 12 13 11 8 8 10 8 6 7 8 8 9 9 8 9 9 10 11 11 11 12 13 13 13 14 13 13 12 12 14 15 14 14 15 16 16 16 16 14 12 11 11 11 12 12 11 12 15 17 16 18 19 15 11 11 13 14 14 14 14 14 14 15 16
23 22 22 24 25 24 22 22 21 17 13 15 19 20 19 17 16 15 14 11 7 9 12 8 3 3 4 4 3 3 3 3 4 6 8 9 9 10 11 12 12 12 13 14 13 13 13 12 13 14 15 14 14 14 15 16 16 16 15 15 12 9 9 10 10 10 10 10 13 15 15 15 15 14 11 12 15 16 15 13 12 12 12 13 14
26 23 23 25 26 25 24 24 24 19 15 15 16 17 18 19 17 16 16 13 8 9 12 9 4 2 2 1 1 1 0 1 3 6 9 10 11 12 12 12 12 12 13 14 13 13 11 9 11 14 14 14 13 12 14 14 13 12 12 11 10 8 8 8 7 7 9 10 10 12 13 13 13 13 12 13 15 15 14 13 12 11 11 12 14
27 26 27 27 26 25 26 26 24 21 18 16 15 15 17 17 17 17 17 13 10 9 10 9 6 3 2 1 1 2 3 5 8 10 12 12 11 12 12 12 12 11 11 11 12 11 9 8 9 10 11 12 11 11 12 11 11 11 11 10 9 9 9 8 7 8 8 9 9 10 11 11 11 11 12 12 12 11 10 10 12 13 12 12 15
31 31 32 30 28 27 27 27 24 22 21 20 17 15 17 19 17 17 15 12 10 9 8 8 6 4 4 4 4 5 6 8 10 11 10 9 10 10 9 9 10 10 9 9 9 10 9 9 8 9 9 10 10 10 10 10 11 12 12 11 10 11 12 9 8 9 8 8 8 8 9 10 10 10 10 10 10 8 7 8 11 14 14 13 14
30 31 31 29 29 27 26 26 25 24 23 21 19 18 19 20 17 15 13 10 9 8 7 7 6 5 6 6 6 5 5 7 11 11 9 8 7 7 6 6 7 8 7 7 7 7 8 8 8 8 7 8 9 10 10 10 10 11 12 11 11 11 12 10 9 8 8 8 8 7 8 9 10 10 9 9 9 9 10 10 10 12 13 14 14
28 27 27 27 28 27 26 24 24 24 22 20 21 21 19 18 16 13 11 9 7 7 6 5 4 5 5 6 5 5 5 6 9 10 8 7 5 4 4 4 4 5 5 5 6 6 6 7 8 8 8 9 9 9 9 8 8 10 11 12 11 10 11 11 9 8 8 8 8 7 7 9 10 10 9 10 10 10 11 9 9 11 12 12 12
28 27 26 26 27 28 26 23 22 23 21 19 19 19 17 15 12 10 9 10 9 6 4 3 3 5 6 7 7 6 7 7 6 5 4 5 5 4 3 3 3 3 3 3 4 6 6 7 8 8 8 9 8 8 8 8 8 10 11 10 9 8 9 10 9 8 6 7 7 7 7 9 11 10 10 10 10 10 10 9 10 11 10 8 8
25 25 22 21 25 29 27 22 20 21 21 19 18 17 16 12 10 11 11 10 7 4 3 4 4 6 6 6 6 5 6 7 6 5 5 5 6 5 1 1 1 2 3 3 5 6 7 9 9 7 6 8 9 9 9 9 9 10 10 10 8 6 7 9 9 7 5 6 7 7 7 9 9 10 9 9 9 9 10 9 9 9 9 8 8
18 19 18 18 22 26 25 20 19 19 19 18 16 16 14 11 10 9 9 7 6 6 6 5 5 6 5 3 4 4 5 6 5 4 3 3 5 5 1 1 1 2 3 4 6 8 9 11 11 8 7 9 11 12 12 11 11 9 9 10 8 6 6 6 6 5 4 5 7 8 8 8 9 9 7 6 7 8 9 10 9 9 9 10 11
11 13 16 18 19 21 22 20 19 19 17 16 15 13 12 11 9 7 7 8 10 10 9 7 7 7 5 4 6 5 4 5 4 3 3 3 5 5 2 2 2 4 5 6 7 8 8 9 10 9 9 11 14 15 14 13 13 10 9 9 8 7 6 4 2 1 1 4 6 8 10 10 10 10 8 7 9 9 9 10 10 10 11 12 13
8 10 13 16 17 18 19 18 18 17 16 14 12 10 9 9 9 10 12 13 12 11 10 8 8 7 6 8 8 5 4 5 5 4 4 4 5 5 3 3 4 6 6 6 7 7 7 8 9 8 10 14 17 17 15 14 12 11 10 10 9 9 6 3 1 2 1 4 7 8 9 10 10 11 11 12 11 9 9 9 10 12 13 13 14
13 14 15 16 17 17 17 17 15 14 11 9 10 11 11 12 13 14 14 13 11 11 9 8 7 7 8 10 9 6 7 7 6 6 7 7 7 4 2 2 4 6 6 5 6 5 5 7 8 8 11 15 16 15 14 13 11 10 11 11 12 11 5 2 2 1 1 8 10 8 9 11 10 8 7 6 6 4 5 7 9 11 11 12 13
19 18 17 17 17 16 16 14 11 9 9 9 10 12 14 16 16 14 12 11 10 9 8 8 8 9 10 10 8 8 10 8 7 9 8 7 6 5 4 5 6 5 4 3 4 4 4 5 7 10 13 15 16 14 13 13 10 9 10 11 13 11 7 6 4 3 6 12 11 8 8 10 9 6 4 4 4 2 3 6 8 10 10 10 9
20 18 16 16 14 9 7 8 10 11 14 14 15 17 16 15 16 15 13 12 11 9 8 9 9 10 12 11 9 11 12 9 8 10 8 6 7 6 6 6 5 2 2 4 4 4 5 7 9 12 15 16 16 15 13 13 11 9 10 11 11 10 10 10 9 7 10 13 11 9 9 9 8 5 3 4 5 2 3 5 8 10 11 10 9
18 17 15 14 10 6 6 6 8 11 16 16 15 15 15 14 15 15 13 13 12 11 11 11 11 12 13 12 10 12 12 10 9 9 8 7 8 8 7 6 4 4 5 5 5 6 7 10 12 14 15 16 16 16 14 13 11 9 10 11 10 11 13 13 10 9 12 12 11 10 11 10 9 7 7 7 5 3 4 6 8 10 11 12 12
17 15 14 13 12 12 9 10 12 13 15 16 15 14 15 14 14 15 14 14 14 12 12 13 13 14 14 12 11 11 12 11 10 9 8 8 8 8 6 5 5 7 6 4 6 8 9 11 13 14 15 16 17 17 16 14 13 12 11 11 10 11 12 12 10 10 13 13 12 12 11 10 10 10 10 9 8 7 6 6 8 10 11 13 12
16 17 18 18 16 14 15 19 19 18 17 16 15 14 14 15 15 15 15 15 14 13 14 15 16 16 15 13 11 12 12 13 12 9 8 8 8 8 6 5 6 7 6 5 7 9 8 9 12 13 15 16 17 18 18 17 16 15 14 13 13 13 14 15 15 14 14 14 14 13 13 12 11 11 10 9 9 8 7 7 8 10 11 12 12
16 18 20 21 20 18 20 21 20 19 17 17 17 15 14 15 15 16 17 16 15 15 15 15 16 15 14 13 13 13 13 12 11 9 8 8 8 9 8 5 5 6 7 7 9 9 7 8 10 12 13 14 16 17 18 18 17 16 15 13 14 16 17 17 17 17 15 15 15 15 15 15 15 15 15 13 13 13 12 11 10 11 12 13 11
14 15 16 20 21 19 21 21 19 19 19 20 20 18 17 17 17 17 17 16 15 15 14 15 15 13 12 13 13 13 12 10 9 8 8 8 9 10 8 5 4 6 9 9 8 7 6 6 9 11 12 13 13 15 17 17 16 16 16 15 15 16 16 16 17 18 17 16 16 16 16 17 17 17 18 17 17 18 17 14 12 13 14 14 12
14 14 15 20 21 20 20 19 17 20 22 21 20 20 20 19 17 16 17 18 18 16 14 14 14 13 14 14 12 11 11 9 8 8 8 9 10 10 9 7 6 7 8 7 6 5 4 6 8 9 10 11 10 11 14 16 15 15 16 15 15 15 15 15 16 17 18 18 17 16 16 17 17 17 19 19 17 16 17 16 14 14 15 14 14
13 13 15 19 20 20 19 18 17 20 21 20 20 22 21 19 17 17 17 18 19 17 15 15 15 14 15 15 13 12 11 9 8 8 7 9 10 11 10 9 8 8 7 6 6 6 5 6 7 8 8 10 10 10 11 13 13 14 14 14 14 15 15 16 16 16 17 17 17 16 17 17 16 16 18 18 16 15 16 17 17 16 15 15 16
14 14 16 19 21 20 20 19 19 19 18 17 18 21 21 19 18 19 18 17 17 17 16 16 14 14 14 14 14 12 10 9 8 7 6 6 7 9 9 9 10 9 7 6 7 7 6 5 6 7 6 7 8 10 10 11 11 12 13 13 14 15 16 17 17 17 17 16 15 16 17 17 17 16 16 16 16 16 16 17 18 17 16 16 17
13 13 15 19 22 20 20 20 19 17 15 14 14 16 17 16 17 19 19 17 17 17 16 15 15 14 13 14 14 13 11 10 8 6 6 6 5 6 7 7 7 7 7 6 6 6 6 5 6 7 6 6 7 8 9 10 11 11 12 13 12 13 15 16 17 17 17 16 15 16 16 16 17 17 16 16 17 18 17 18 18 18 17 17 17
9 12 13 15 19 19 19 20 21 20 19 19 19 17 16 16 18 20 19 16 16 15 15 15 14 14 14 14 14 13 12 9 8 7 8 8 7 6 5 5 6 6 7 8 7 7 6 5 7 9 8 8 8 9 10 12 12 13 14 13 11 12 15 16 17 18 17 16 16 17 16 17 18 18 17 17 17 18 19 19 19 18 18 17 16
13 8 5 9 14 19 20 23 28 29 29 29 28 25 23 23 24 22 18 14 13 14 14 14 13 13 14 14 13 13 13 12 10 9 8 7 7 7 6 6 7 7 6 7 7 8 8 7 8 10 10 9 10 11 12 13 13 13 13 13 13 16 17 18 19 19 18 17 17 17 17 17 18 19 18 18 18 19 19 19 19 19 18 17 16
19 15 3 10 14 17 20 24 29 32 33 35 34 30 28 28 27 25 23 19 16 15 15 15 14 15 16 16 14 14 16 14 12 10 8 7 6 6 6 5 6 6 6 6 6 7 8 8 9 11 11 11 11 12 12 13 12 12 12 13 14 17 18 18 19 19 18 18 17 16 17 19 19 19 19 19 19 20 20 19 19 19 18 17 16
13 16 10 9 10 12 17 21 23 26 29 35 38 37 35 33 30 27 26 24 21 19 19 18 17 17 18 19 18 17 16 15 11 9 7 7 8 8 8 7 6 6 6 6 8 9 9 10 11 11 11 11 11 11 12 12 12 13 13 12 14 16 17 17 18 19 19 19 18 17 19 20 19 19 20 20 20 20 20 20 20 19 19 19 18
10 11 10 7 7 6 15 21 20 21 23 27 32 35 35 34 32 29 27 26 25 24 23 21 20 19 18 19 19 18 15 12 9 7 8 9 11 13 13 13 12 11 7 7 10 11 10 10 11 11 11 11 11 11 11 11 12 12 13 13 13 14 15 16 17 18 19 19 18 18 19 20 19 19 20 20 20 20 19 20 21 20 20 20 19
14 14 14 11 6 5 15 21 20 20 21 21 23 25 25 27 28 29 29 28 27 26 24 22 21 20 19 17 16 14 11 9 7 8 10 12 13 15 16 15 15 16 14 11 11 11 12 11 11 11 11 11 10 10 10 10 11 11 11 12 13 12 12 13 15 18 19 18 17 18 19 19 19 19 20 20 20 19 19 20 20 20 19 18 17
17 18 17 15 10 8 14 18 17 18 20 20 20 20 20 22 23 22 23 24 24 25 25 22 20 18 17 15 13 11 9 9 10 11 13 12 10 11 12 13 14 15 16 15 13 13 12 12 11 11 11 10 10 10 9 10 10 10 11 14 14 12 12 13 14 16 18 17 15 16 17 17 17 18 18 19 19 18 17 17 18 18 18 16 16
21 20 19 19 15 11 14 17 18 19 20 20 20 21 20 20 20 18 18 18 18 19 21 21 20 19 18 17 15 13 12 13 14 14 13 11 9 8 8 10 12 13 13 13 13 12 12 11 10 10 10 9 10 10 10 11 12 11 12 14 14 12 13 14 13 15 18 17 14 15 17 17 17 18 18 18 19 18 17 18 18 19 18 17 16
23 22 21 22 18 14 15 19 20 20 21 21 21 21 20 19 19 19 18 18 17 18 20 21 21 20 19 19 19 19 18 17 15 14 14 14 14 12 12 12 12 12 11 11 11 10 10 10 9 9 9 10 11 11 12 12 12 11 11 12 12 13 14 14 13 14 15 14 15 18 18 18 19 19 18 19 20 19 19 20 21 21 22 22 21
22 20 20 21 20 18 19 22 23 24 24 23 22 21 21 20 19 19 18 18 17 17 18 18 18 17 17 17 17 17 18 17 15 14 13 13 13 13 13 12 10 9 9 9 8 7 7 8 9 10 10 11 11 11 12 12 11 12 13 13 14 14 13 13 14 15 13 12 15 18 17 17 18 18 18 19 19 19 20 21 21 21 23 25 24
20 19 21 22 23 24 25 26 27 27 27 25 24 23 22 21 20 19 19 18 17 15 14 12 12 12 12 11 10 10 9 9 9 10 11 12 11 11 10 9 8 7 7 7 7 8 10 12 12 10 10 10 10 10 11 11 12 12 13 13 13 14 14 13 15 16 13 13 16 17 16 17 18 19 19 19 19 19 20 21 20 20 20 21 21
18 19 24 26 27 28 29 29 29 28 27 27 26 26 24 22 21 21 20 18 16 13 11 9 10 10 9 7 5 2 0 2 5 8 10 10 10 9 8 8 7 6 7 9 10 10 11 13 12 10 10 10 10 10 10 11 12 13 13 13 13 14 14 15 16 16 15 15 15 16 16 17 18 19 19 19 18 19 20 20 19 20 20 19 20
22 23 26 27 28 27 28 28 28 28 27 27 27 26 25 24 22 20 19 17 14 12 10 10 11 11 10 7 3 2 2 2 7 8 8 8 8 8 8 8 8 8 8 10 9 8 8 7 6 7 7 7 8 8 9 11 13 14 15 16 15 15 15 16 17 19 18 17 16 15 15 17 18 18 19 19 19 19 20 19 19 19 19 19 20
26 27 27 27 27 27 27 27 26 26 26 26 25 25 24 23 21 20 18 16 12 11 12 12 10 8 7 5 3 5 5 7 8 8 7 7 8 7 7 8 8 7 7 7 7 6 6 4 3 5 6 8 9 10 11 13 14 15 16 16 16 16 17 16 17 18 20 19 17 16 16 16 17 18 19 19 19 19 19 19 20 20 19 19 20
26 27 27 27 28 27 27 27 26 26 25 24 23 23 23 22 21 19 17 14 11 11 14 14 10 6 5 6 4 5 6 6 7 7 7 6 6 5 5 7 7 6 8 7 8 6 7 8 7 9 11 12 12 13 13 14 15 15 15 15 16 16 15 15 16 16 17 17 16 16 16 16 17 17 18 18 18 19 19 20 21 21 20 20 20
26 25 26 27 28 28 27 27 26 25 23 22 21 22 23 21 19 16 14 13 13 14 15 13 9 7 6 7 5 2 3 5 7 7 6 5 4 4 5 7 6 5 6 6 7 7 7 8 9 11 12 12 12 13 12 12 13 14 14 15 15 15 14 14 14 14 14 14 15 16 16 16 17 17 17 17 17 18 19 21 22 21 21 21 21
27 27 26 27 27 27 27 26 25 25 23 20 19 19 19 17 15 13 12 14 15 15 13 11 9 7 7 6 4 3 5 6 7 6 4 4 4 5 6 7 6 5 5 6 7 7 7 7 8 9 10 10 11 12 11 11 12 12 12 13 14 14 14 15 15 14 15 15 15 16 17 18 18 17 17 17 17 18 19 20 21 22 22 22 22
28 27 26 26 28 29 28 27 27 26 24 20 18 17 15 14 14 13 12 12 12 13 12 11 10 8 6 4 3 3 4 6 6 4 4 4 5 5 6 6 5 4 5 7 8 8 8 9 9 9 9 11 11 11 11 11 12 12 12 13 14 14 15 16 16 16 16 16 17 18 19 19 18 18 18 19 20 20 19 19 20 21 22 22 22
29 28 26 26 27 27 25 25 26 26 24 21 17 15 14 14 14 13 11 10 10 11 11 10 9 8 6 5 5 4 4 5 5 4 4 4 5 5 3 2 3 3 5 8 10 9 9 10 10 10 10 11 12 12 12 12 12 12 11 11 12 13 14 15 14 14 14 15 16 17 18 18 19 19 20 21 22 21 20 19 19 20 21 22 23
31 29 28 28 27 25 23 24 25 26 24 19 16 14 14 14 13 12 11 11 10 9 9 8 8 7 7 6 5 4 3 3 4 5 4 4 2 1 0 0 3 5 6 7 8 9 9 9 10 10 11 13 15 15 12 10 9 8 8 8 9 11 12 12 12 13 13 14 15 16 16 18 19 20 21 21 21 21 21 21 21 21 22 22 23
31 29 26 25 25 23 20 20 21 22 20 17 15 14 14 14 12 11 11 10 9 9 9 8 8 7 6 6 5 4 3 3 4 3 3 4 2 0 2 3 3 4 5 6 7 8 9 9 10 11 13 13 12 9 6 5 5 6 6 7 8 8 10 11 12 13 14 15 16 17 18 18 19 20 20 21 21 22 22 22 22 23 24 24 22
31 30 28 25 23 22 19 16 16 18 17 17 16 16 14 13 12 11 10 9 9 9 9 8 8 7 6 6 6 4 3 3 3 1 1 2 3 1 4 5 4 4 3 4 7 9 10 10 9 9 9 8 6 5 5 6 6 8 9 9 10 11 13 14 15 17 19 20 21 22 23 24 25 24 22 22 22 23 23 23 23 24 24 23 22
28 29 27 23 19 19 18 17 17 17 17 16 16 15 14 13 11 10 10 9 9 9 9 8 8 7 6 5 5 4 2 2 1 1 2 2 2 3 6 7 5 3 3 7 11 13 11 9 9 10 10 8 8 8 9 9 9 10 11 12 14 17 19 20 22 23 24 25 26 27 26 26 25 24 22 21 22 23 23 23 23 23 22 20 20
22 22 21 18 16 16 16 16 16 16 15 15 15 14 13 12 11 10 10 10 9 9 8 8 7 7 6 5 4 4 2 1 1 2 2 2 3 4 6 8 9 9 9 11 13 15 14 12 11 10 9 8 9 10 11 12 13 14 14 16 19 22 24 25 26 26 24 24 25 24 22 19 18 18 19 19 20 21 21 21 21 20 19 19 19
Wind_Direction
133 128 176 182 190 209 217 222 231 237 232 221 213 210 215 220 218 217 220 222 222 216 215 223 229 223 213 214 223 231 221 212 213 212 212 217 226 239 253 261 261 261 265 268 269 271 274 276 277 282 290 293 290 288 291 294 293 294 296 296 300 314 333 333 306 298 301 304 309 315 320 314 300 289 283 287 295 306 308 304 297 295 298 297 293
175 188 207 197 190 197 206 211 215 223 228 223 220 221 220 215 215 221 222 221 225 224 219 219 225 229 225 218 221 231 233 224 216 209 211 222 234 243 252 262 265 264 264 265 267 269 272 276 278 282 286 285 286 289 292 292 293 298 302 307 315 329 341 336 316 296 298 305 307 306 308 306 299 298 292 288 297 305 303 303 300 296 297 296 292
188 200 208 198 191 194 204 211 211 214 221 221 230 243 235 207 205 221 228 221 222 225 224 224 223 224 224 221 217 219 222 221 213 208 219 236 247 254 260 270 278 278 272 267 268 270 272 275 280 285 282 278 280 288 291 289 291 298 302 307 316 317 313 313 311 301 291 296 302 304 305 301 299 305 305 297 302 306 302 302 301 300 303 304 300
187 197 199 191 192 197 202 207 205 204 212 213 218 230 226 202 198 209 215 217 221 220 220 227 225 209 207 206 193 187 192 204 214 221 236 248 254 259 263 267 271 277 279 279 283 287 289 291 294 294 290 286 287 289 290 289 292 296 295 295 304 309 307 306 299 287 277 283 295 300 301 300 302 306 304 298 302 305 305 303 300 302 310 314 311
181 185 190 191 196 201 202 200 197 194 200 210 216 223 220 208 204 204 202 202 206 200 201 206 197 177 183 181 177 180 179 203 234 245 252 256 257 259 263 262 260 266 271 270 275 283 287 291 291 289 288 291 295 298 299 299 298 299 298 298 304 308 307 305 294 281 276 280 291 300 306 309 310 309 304 302 306 309 308 305 303 307 313 314 314
178 179 185 193 198 203 202 196 193 193 198 208 217 221 218 211 209 207 201 194 184 183 190 191 188 205 215 209 231 240 265 275 263 258 255 255 256 259 266 264 257 260 268 268 268 269 272 282 288 288 290 293 296 297 298 299 300 298 294 297 303 304 300 300 294 288 289 289 292 300 308 315 315 315 314 312 312 312 310 308 310 311 308 306 307
177 179 182 188 193 198 199 194 193 196 201 210 217 216 213 208 203 202 199 192 182 185 195 204 215 227 223 237 304 290 255 251 253 255 259 263 262 261 265 266 261 261 270 275 274 272 273 281 284 284 287 290 290 288 287 289 292 292 291 294 297 299 300 301 301 306 303 297 297 300 305 312 315 315 318 319 317 313 314 320 318 311 307 305 303
177 177 178 182 185 187 191 192 194 198 204 213 216 211 209 204 195 192 193 189 188 200 210 213 212 206 206 217 231 236 237 245 252 253 257 262 263 266 271 274 276 277 277 275 275 279 286 287 285 284 288 290 290 292 294 295 296 298 301 304 302 302 308 307 305 314 311 297 296 302 304 306 307 308 313 318 317 313 317 321 311 306 311 311 305
177 178 178 180 183 182 183 186 189 195 203 209 207 204 207 206 199 196 196 189 193 209 214 206 197 198 212 220 217 208 209 243 259 261 261 258 259 271 276 273 277 277 276 281 286 294 299 300 303 304 302 303 297 297 303 304 303 304 305 307 306 306 312 311 304 309 311 298 297 309 312 306 304 306 306 306 307 307 310 307 297 300 310 311 310
179 181 181 184 185 181 179 181 184 190 197 202 204 205 206 206 204 201 196 190 195 205 204 199 197 205 214 214 205 182 171 217 252 259 265 269 258 247 248 254 271 274 275 290 304 312 316 321 325 318 314 320 318 315 321 319 314 312 308 307 305 303 308 312 311 312 308 297 297 307 307 297 296 301 300 300 304 306 309 307 299 302 307 308 317
182 183 185 189 189 183 178 177 181 188 191 196 203 205 201 199 196 189 186 195 200 199 189 192 198 208 216 212 200 178 166 185 214 219 236 254 231 202 214 239 263 287 302 316 324 326 328 341 347 337 337 352 358 353 348 342 336 333 328 320 310 302 301 302 305 310 304 297 300 301 293 290 297 304 301 299 304 308 308 303 296 301 304 302 314
186 184 182 187 192 189 182 178 182 186 188 191 194 195 191 179 165 173 186 194 195 188 194 209 204 201 212 212 194 182 174 179 194 211 232 242 219 192 183 255 260 315 328 335 348 354 0 8 12 16 27 35 31 15 3 356 344 337 336 335 328 315 303 294 290 293 294 300 304 300 295 294 298 305 304 303 309 312 311 305 297 300 303 299 302
184 179 175 180 191 193 188 186 189 188 188 189 186 184 180 162 154 175 185 183 185 188 197 214 209 198 208 203 164 165 178 179 190 216 231 225 199 178 148 328 318 13 6 8 18 27 33 29 28 37 41 31 19 6 359 353 347 343 343 341 339 333 325 310 286 272 280 309 315 314 314 307 301 302 305 312 319 320 319 316 314 312 310 307 305
179 176 179 182 188 193 192 192 195 193 190 188 182 174 164 153 157 171 174 185 190 179 176 194 200 195 194 159 139 144 164 170 172 182 172 167 172 163 117 24 56 67 52 46 46 47 43 35 36 38 23 8 1 355 351 347 347 354 356 346 342 340 334 330 310 261 282 321 319 317 317 311 299 291 284 289 301 305 306 308 311 310 306 304 306
196 189 188 190 193 197 194 193 193 191 187 183 168 143 134 145 162 173 180 191 190 168 166 185 187 176 162 145 141 141 137 133 134 143 147 142 141 138 115 85 87 83 76 64 53 48 40 38 45 38 11 359 356 351 347 343 342 349 351 345 341 334 315 306 24 103 86 340 328 321 324 320 304 286 281 289 294 292 288 289 295 298 297 301 308
205 199 197 199 200 200 197 194 188 179 170 151 122 115 131 155 168 179 185 187 179 163 165 175 164 152 148 142 139 135 125 125 130 131 130 130 126 114 105 117 93 76 72 55 41 45 43 42 47 34 8 359 356 352 348 345 343 348 352 348 342 339 333 355 31 141 354 349 341 327 330 336 327 311 303 311 311 292 279 285 298 305 307 311 315
196 199 199 198 199 204 204 189 164 144 131 124 139 159 166 161 160 168 175 172 167 160 160 163 153 141 139 141 142 138 129 128 136 133 127 125 114 84 64 88 83 71 77 66 59 76 69 46 37 26 15 7 4 2 358 356 358 0 360 351 345 356 31 43 10 308 325 342 342 330 328 337 342 349 17 30 18 330 288 305 326 335 332 322 316
185 191 194 191 192 210 212 161 144 152 152 156 179 188 174 155 150 155 159 159 160 157 154 152 143 137 140 143 145 140 134 134 138 134 124 110 102 89 76 84 85 64 71 83 95 106 82 51 36 27 23 18 15 14 11 9 13 15 5 352 346 2 17 7 353 343 339 340 341 336 327 327 338 345 347 2 11 1 312 317 329 337 335 327 323
179 178 177 174 154 91 68 113 144 163 162 166 184 182 160 147 147 150 151 147 144 147 149 143 135 133 134 133 133 135 134 136 138 132 121 104 98 94 86 82 70 44 44 62 93 99 65 41 33 29 27 24 23 24 22 20 25 27 11 357 355 2 360 353 353 353 346 342 339 333 323 318 321 317 309 317 328 325 314 316 322 328 325 321 323
174 161 153 148 120 95 117 164 169 162 165 171 175 166 152 145 145 146 145 141 138 141 140 135 131 129 126 123 127 133 132 131 130 127 119 105 93 87 86 81 62 48 34 35 78 83 58 34 29 29 30 30 31 33 34 35 39 39 29 18 10 2 358 1 3 348 336 334 331 327 327 325 318 313 314 314 310 308 308 307 313 320 317 313 315
167 156 156 154 137 132 163 179 168 155 161 166 159 153 149 147 147 144 139 138 141 141 136 132 130 128 125 124 126 130 131 129 125 117 107 96 76 62 68 76 65 54 31 16 54 70 53 32 32 32 32 33 35 37 40 43 47 46 40 34 27 16 8 6 3 350 342 344 347 346 351 354 348 342 339 331 322 323 323 311 307 313 315 311 310
169 164 163 151 139 145 165 168 153 146 154 156 149 145 145 147 151 146 137 132 134 135 132 127 125 125 126 129 133 134 131 126 117 104 88 73 49 38 50 68 68 59 42 27 43 57 45 28 32 33 33 37 42 44 46 48 48 43 36 33 30 25 19 13 9 5 360 360 4 6 7 8 5 1 357 351 345 343 339 328 319 317 314 309 304
171 164 151 136 133 147 160 157 146 145 151 150 146 146 149 152 154 145 135 127 125 126 123 121 128 136 132 129 133 135 130 121 109 93 75 57 41 35 45 61 69 62 52 43 46 52 39 24 27 32 36 41 44 47 50 49 45 39 33 32 31 27 22 18 17 17 13 9 11 14 14 12 9 4 360 356 355 354 349 340 333 327 322 319 317
167 157 142 137 142 154 158 153 147 148 149 148 148 150 152 153 149 139 133 127 122 124 129 136 149 154 139 126 126 129 127 118 101 85 69 54 45 41 47 59 68 62 52 45 39 29 18 20 24 27 33 35 35 45 50 47 42 38 34 32 31 28 25 21 18 17 15 10 7 7 6 3 1 358 354 350 351 359 0 357 354 351 345 342 338
168 161 148 146 151 155 152 149 149 150 149 148 149 149 148 146 141 134 130 124 123 132 148 157 158 151 138 129 125 124 123 112 95 83 69 58 55 56 58 57 55 53 46 36 25 16 14 20 22 23 27 30 35 48 50 43 40 37 32 28 28 28 26 24 20 17 13 7 1 358 354 351 350 348 347 345 350 1 5 3 1 358 353 347 341
177 173 160 153 155 154 150 149 148 145 144 145 148 149 146 141 138 134 130 131 139 150 157 156 148 137 131 128 124 123 118 104 88 75 67 60 53 56 59 49 43 48 48 35 24 19 13 11 14 14 13 25 44 51 46 37 33 29 25 24 26 27 26 23 20 15 8 0 356 351 348 347 345 343 344 348 352 356 359 357 352 346 343 341 336
188 180 165 158 157 152 147 146 141 133 135 141 143 143 140 137 139 142 143 147 152 152 150 148 144 137 130 125 123 122 116 107 98 85 87 92 72 58 62 57 50 47 36 22 24 24 12 9 21 22 20 41 58 53 43 34 22 15 18 21 23 27 26 20 17 12 2 355 353 350 348 350 350 349 350 350 349 349 351 349 342 336 336 336 329
216 195 178 168 157 142 130 128 124 118 118 119 115 112 113 115 119 128 138 146 148 147 147 145 141 136 132 130 127 123 116 113 111 100 98 104 95 71 63 61 50 29 10 10 32 49 39 33 46 44 41 54 54 38 34 33 20 11 11 10 19 35 31 19 15 10 1 356 355 351 350 353 353 352 352 349 348 348 346 343 339 335 336 334 326
296 269 201 151 133 120 113 114 115 113 110 105 101 98 99 102 104 106 115 128 133 135 136 132 130 133 132 131 131 127 120 115 111 102 96 92 81 61 49 43 31 19 15 18 37 57 55 49 53 45 35 42 42 29 26 25 16 10 6 4 21 38 32 20 14 7 359 358 356 352 354 357 355 354 352 349 349 347 344 344 344 342 340 338 334
323 326 28 127 124 114 112 113 112 110 106 102 97 93 91 96 100 98 99 106 115 125 128 126 130 136 131 125 126 128 125 119 114 109 100 81 62 44 32 25 10 14 38 43 45 61 60 46 42 35 28 33 36 27 20 16 12 10 8 10 25 32 25 18 12 3 358 358 354 355 3 2 356 354 353 350 349 348 348 351 349 346 346 347 347
353 359 38 120 145 125 116 117 114 111 109 106 103 98 92 90 92 94 97 101 105 111 115 117 120 123 122 119 118 119 119 117 113 106 88 66 55 45 43 48 41 34 47 46 41 50 55 46 39 34 30 34 35 28 21 15 14 15 12 13 26 28 21 15 9 4 1 356 352 1 10 3 355 354 354 351 350 350 351 353 353 354 358 358 356
64 47 64 123 187 150 121 122 118 115 113 109 106 104 99 93 89 89 94 100 101 101 103 104 104 104 108 112 113 112 112 109 101 88 73 68 69 65 62 62 54 45 49 52 41 43 52 53 47 41 36 34 33 31 25 18 18 19 13 10 18 23 19 14 10 8 3 352 352 6 8 358 355 357 354 351 352 351 352 356 359 2 3 359 356
113 123 124 140 181 158 127 125 121 119 118 114 111 109 106 101 97 91 91 94 96 96 96 95 96 97 98 99 101 101 98 91 80 78 83 87 84 75 69 65 55 48 53 60 54 49 52 51 48 44 40 34 29 29 28 23 18 16 14 10 7 11 18 18 14 12 5 354 358 10 5 357 359 359 354 353 354 352 356 360 359 358 356 353 352
127 138 139 134 136 141 133 127 123 121 120 116 114 111 107 108 108 103 97 93 90 89 89 88 88 88 86 84 83 81 82 86 90 94 96 93 84 74 70 68 60 52 51 53 52 52 52 50 48 44 38 34 30 23 21 21 14 10 19 16 1 358 14 18 13 14 9 358 359 6 1 355 358 357 354 353 351 348 354 358 354 350 346 344 345
131 139 138 131 131 142 138 128 123 122 119 115 115 115 114 112 110 107 105 102 96 91 88 86 84 82 80 80 80 80 84 93 95 92 83 68 56 55 63 66 64 60 56 55 55 55 53 51 50 45 36 32 29 18 11 13 8 5 16 11 351 348 8 12 9 10 5 355 354 0 357 353 356 357 356 351 346 345 352 355 350 342 336 334 335
139 141 139 133 132 136 132 126 123 122 119 118 118 118 116 112 107 105 105 104 102 100 98 95 93 89 85 85 84 83 85 88 87 82 73 62 55 54 59 65 67 63 59 57 57 59 57 52 45 40 31 24 21 15 11 9 1 356 3 360 344 347 4 9 5 1 356 354 360 2 358 357 357 357 354 349 346 350 355 353 347 342 340 342 343
140 138 136 133 131 130 125 122 123 124 121 120 118 115 110 108 108 109 108 106 106 108 109 106 101 96 93 91 88 88 87 86 82 77 70 63 62 64 66 68 69 68 67 62 52 54 64 59 45 34 24 15 12 10 5 359 352 352 357 355 348 350 358 2 355 347 349 7 11 0 354 354 352 351 352 350 348 352 353 349 345 344 345 347 347
142 139 142 140 135 130 124 122 124 125 123 120 117 114 112 112 113 112 113 114 115 117 120 118 112 111 109 98 88 91 93 87 79 71 59 51 55 64 69 70 69 71 77 68 44 32 41 44 37 23 12 8 9 7 359 352 349 350 349 345 343 344 348 352 347 341 350 12 8 352 349 353 351 351 354 351 349 351 349 345 345 345 344 345 345
148 145 146 141 134 130 128 127 127 125 123 120 119 116 115 116 117 117 120 121 120 121 126 120 105 104 109 96 76 77 234 32 56 63 61 57 55 55 59 63 53 42 54 62 50 34 34 35 24 6 2 4 3 360 354 346 342 339 336 336 339 341 343 346 345 344 353 5 359 349 351 354 351 350 350 347 346 347 343 340 342 343 341 342 341
148 144 142 138 133 131 129 128 128 126 123 122 121 121 122 122 122 123 122 117 114 114 113 102 91 97 110 108 74 326 278 70 73 69 65 65 62 54 52 54 41 23 33 51 49 35 36 37 7 341 344 346 341 344 349 347 343 343 343 343 344 346 346 346 346 347 352 356 353 351 352 350 347 345 343 341 341 341 337 336 337 336 335 336 335
141 140 139 136 133 130 127 126 127 126 125 125 125 127 127 124 121 118 111 107 108 110 102 91 86 100 129 134 70 40 56 82 89 82 71 68 65 55 53 58 47 19 16 42 58 41 21 7 322 322 344 355 359 2 1 355 351 347 344 342 344 347 349 348 347 347 347 347 348 350 349 345 343 341 337 336 336 335 333 332 332 329 328 328 327
137 136 136 136 134 131 128 128 128 127 128 130 131 130 125 118 114 112 109 110 115 108 95 84 74 80 128 154 132 71 63 72 78 76 70 67 65 63 69 74 58 12 3 40 70 52 358 344 354 9 10 11 13 12 5 358 355 350 345 343 344 344 342 339 338 337 337 337 339 341 339 335 333 331 328 328 329 328 327 326 325 324 323 323 322
136 136 136 136 133 130 128 129 128 129 132 134 132 126 119 113 111 113 114 112 107 95 86 80 74 79 110 134 133 82 46 70 82 80 72 64 56 55 70 77 61 9 354 25 54 41 359 350 5 10 5 4 9 8 359 352 348 345 342 339 337 334 332 329 327 325 324 324 323 322 320 319 320 320 319 318 317 318 318 318 318 317 317 316 316
136 138 137 132 128 127 128 128 126 126 127 126 121 116 111 108 110 114 112 106 102 98 96 98 103 107 115 122 114 68 53 71 81 78 72 73 62 47 54 62 50 11 348 359 19 18 360 354 2 2 356 356 360 358 349 341 336 332 327 323 320 319 319 318 315 313 312 310 307 303 303 305 307 308 308 309 309 309 310 310 312 312 311 310 309
127 130 129 126 124 125 125 124 122 120 118 114 110 108 108 111 115 121 121 116 116 122 128 135 141 144 140 131 120 101 91 95 96 81 66 71 70 57 51 48 31 358 346 356 7 8 358 354 360 360 352 346 342 337 330 324 318 314 312 310 309 310 309 309 310 310 308 305 302 300 300 300 302 303 305 307 307 305 303 303 306 308 307 306 305
117 120 120 119 118 115 113 113 115 114 112 112 112 112 115 119 123 127 130 128 129 133 137 143 149 145 130 113 107 107 107 112 110 96 78 71 66 58 46 20 1 2 358 354 355 358 356 355 355 352 344 333 320 311 308 307 307 308 308 303 299 299 301 301 303 304 303 301 301 302 302 302 301 301 302 304 304 304 302 302 303 304 303 303 302
113 113 115 115 112 109 109 113 114 113 114 119 122 121 122 123 124 126 128 129 132 134 133 131 129 122 114 113 113 107 102 105 105 106 113 115 96 56 263 55 28 15 356 342 343 350 351 347 339 329 318 307 299 297 299 304 307 308 304 295 292 294 294 291 290 293 294 294 298 303 307 307 305 302 302 303 303 303 302 301 301 302 303 302 300
111 110 110 111 111 111 114 117 118 119 123 126 122 118 118 118 119 123 128 132 135 131 124 121 119 116 115 117 114 106 108 117 115 119 147 158 158 34 13 45 34 356 327 319 325 328 322 313 304 300 301 302 303 305 312 320 320 317 320 324 325 320 314 309 308 309 309 309 310 312 311 310 309 307 306 305 303 301 299 299 301 304 305 304 303
107 106 105 106 107 109 111 112 115 120 125 124 121 121 124 127 129 133 135 133 129 125 121 119 119 120 123 125 124 125 127 123 123 170 225 150 124 30 310 291 264 252 277 320 324 314 299 291 297 313 325 333 347 1 359 349 342 342 346 349 346 338 333 330 328 325 323 321 319 317 316 314 312 309 304 300 299 297 295 295 298 302 304 304 304
105 107 108 108 110 113 115 117 119 122 124 125 126 129 132 133 133 132 129 124 119 119 122 125 126 126 127 127 126 124 109 95 107 290 332 33 50 318 302 299 293 296 334 342 337 328 317 317 339 359 2 355 351 353 353 351 350 349 348 346 342 339 337 337 335 333 331 327 324 322 321 318 313 308 302 298 298 297 295 296 299 301 302 302 303
105 107 107 104 104 108 113 117 119 119 120 121 122 122 121 121 121 120 119 119 118 118 121 126 129 131 133 132 127 119 102 88 261 297 335 343 305 301 327 348 352 350 346 340 335 333 337 349 2 6 358 345 344 349 352 353 352 349 344 343 344 344 344 344 343 340 338 335 333 332 329 322 315 311 310 310 309 306 303 302 301 300 300 300 301